When you browse on this site, cookies collect data to enhance your experience and personalize the content and advertising you see.
Visit our Privacy Policy to learn more. By continuing to use the site, you agree to this use of cookies and data.
  • In Portugal
  • List of Countries
  • For 7 days
  • Water Temperature
  • Satellite Maps
  • Weather Map
  • Weather Widgets
  • user-avatar
    Login

    Hourly Weather Lominskoe

    Today, 24 May, Friday

    Time Temperature Precipitation Wind Pressure Humidity
    00:00 +9°C° 0 mm 3 mps 734 mmHg 92%
    01:00 +9°C° 0 mm 3 mps 735 mmHg 92%
    02:00 +9°C° 0 mm 2 mps 734 mmHg 96%
    03:00 +9°C° 0 mm 2 mps 735 mmHg 92%
    04:00 +9°C° 0 mm 2 mps 735 mmHg 89%
    05:00 +9°C° 0 mm 3 mps 735 mmHg 86%
    06:00 +10°C° 0 mm 3 mps 735 mmHg 81%
    07:00 +10°C° 0 mm 2 mps 735 mmHg 77%
    08:00 +12°C° 0 mm 2 mps 735 mmHg 73%
    09:00 +13°C° 0 mm 2 mps 735 mmHg 71%
    10:00 +15°C° 0 mm 2 mps 735 mmHg 68%
    11:00 +16°C° 0 mm 2 mps 735 mmHg 66%
    12:00 +17°C° 0 mm 2 mps 735 mmHg 62%
    13:00 +18°C° 0 mm 2 mps 735 mmHg 57%
    14:00 +20°C° 0 mm 2 mps 735 mmHg 53%
    15:00 +20°C° 0 mm 2 mps 735 mmHg 56%
    16:00 +19°C° 0 mm 2 mps 735 mmHg 59%
    17:00 +19°C° 0 mm 3 mps 734 mmHg 62%
    18:00 +18°C° 0 mm 2 mps 734 mmHg 71%
    19:00 +16°C° 0 mm 2 mps 734 mmHg 80%
    20:00 +14°C° 0 mm 2 mps 734 mmHg 88%
    21:00 +14°C° 0 mm 2 mps 734 mmHg 89%
    22:00 +15°C° 0 mm 2 mps 733 mmHg 89%
    23:00 +15°C° 0 mm 2 mps 733 mmHg 89%

    Tomorrow, 25 May, Saturday

    Time Temperature Precipitation Wind Pressure Humidity
    00:00 +15°C° 0 mm 2 mps 733 mmHg 90%
    01:00 +15°C° 0 mm 2 mps 733 mmHg 92%
    02:00 +14°C° 0 mm 2 mps 733 mmHg 93%
    03:00 +14°C° 0.1 mm 2 mps 733 mmHg 94%
    04:00 +14°C° 0.1 mm 2 mps 732 mmHg 94%
    05:00 +14°C° 0.1 mm 2 mps 732 mmHg 95%
    06:00 +15°C° 0.1 mm 2 mps 732 mmHg 94%
    07:00 +15°C° 0.1 mm 2 mps 732 mmHg 92%
    08:00 +15°C° 0.1 mm 2 mps 731 mmHg 91%
    09:00 +16°C° 0.2 mm 2 mps 731 mmHg 89%
    10:00 +16°C° 0.2 mm 2 mps 731 mmHg 88%
    11:00 +17°C° 0.2 mm 2 mps 730 mmHg 86%
    12:00 +18°C° 0.3 mm 2 mps 730 mmHg 83%
    13:00 +18°C° 0.3 mm 3 mps 730 mmHg 80%
    14:00 +19°C° 0.3 mm 3 mps 729 mmHg 77%
    15:00 +19°C° 1.2 mm 3 mps 729 mmHg 80%
    16:00 +18°C° 1.2 mm 3 mps 729 mmHg 83%
    17:00 +18°C° 1.2 mm 3 mps 728 mmHg 86%
    18:00 +17°C° 0.3 mm 2 mps 728 mmHg 89%
    19:00 +16°C° 0.3 mm 2 mps 728 mmHg 92%
    20:00 +15°C° 0.3 mm 2 mps 728 mmHg 94%
    21:00 +14°C° 0 mm 2 mps 728 mmHg 95%
    22:00 +13°C° 0 mm 2 mps 728 mmHg 96%
    23:00 +12°C° 0 mm 2 mps 728 mmHg 97%

    Day after tomorrow, 26 May, Sunday

    Time Temperature Precipitation Wind Pressure Humidity
    00:00 +10°C° 0 mm 2 mps 728 mmHg 97%
    01:00 +9°C° 0 mm 2 mps 729 mmHg 97%
    02:00 +8°C° 0 mm 2 mps 729 mmHg 97%
    03:00 +8°C° 0 mm 2 mps 729 mmHg 97%
    04:00 +8°C° 0 mm 2 mps 729 mmHg 96%
    05:00 +8°C° 0 mm 2 mps 730 mmHg 95%
    06:00 +9°C° 0 mm 2 mps 730 mmHg 90%
    07:00 +10°C° 0 mm 2 mps 730 mmHg 86%
    08:00 +11°C° 0 mm 3 mps 730 mmHg 82%
    09:00 +12°C° 0 mm 3 mps 730 mmHg 72%
    10:00 +14°C° 0 mm 3 mps 730 mmHg 62%
    11:00 +17°C° 0 mm 3 mps 730 mmHg 52%
    12:00 +18°C° 0 mm 3 mps 730 mmHg 50%
    13:00 +18°C° 0 mm 3 mps 730 mmHg 48%
    14:00 +19°C° 0 mm 3 mps 729 mmHg 47%
    15:00 +19°C° 0 mm 3 mps 729 mmHg 49%
    16:00 +19°C° 0 mm 4 mps 729 mmHg 51%
    17:00 +18°C° 0 mm 4 mps 729 mmHg 54%
    18:00 +17°C° 0.1 mm 3 mps 729 mmHg 62%
    19:00 +14°C° 0.1 mm 3 mps 729 mmHg 71%
    20:00 +13°C° 0.1 mm 3 mps 728 mmHg 79%
    21:00 +12°C° 0.3 mm 3 mps 729 mmHg 84%
    22:00 +11°C° 0.3 mm 3 mps 729 mmHg 88%
    23:00 +10°C° 0.3 mm 3 mps 729 mmHg 92%

    27 May, Monday

    Time Temperature Precipitation Wind Pressure Humidity
    00:00 +10°C° 0.5 mm 3 mps 729 mmHg 93%
    01:00 +8°C° 0.5 mm 4 mps 729 mmHg 94%
    02:00 +7°C° 0.5 mm 4 mps 729 mmHg 94%
    03:00 +7°C° 0 mm 4 mps 729 mmHg 94%
    04:00 +7°C° 0 mm 4 mps 730 mmHg 93%
    05:00 +6°C° 0 mm 5 mps 730 mmHg 92%
    06:00 +8°C° 0.1 mm 5 mps 730 mmHg 86%
    07:00 +9°C° 0.1 mm 5 mps 730 mmHg 80%
    08:00 +10°C° 0.1 mm 6 mps 731 mmHg 74%
    09:00 +10°C° 0 mm 5 mps 731 mmHg 70%
    10:00 +12°C° 0 mm 5 mps 731 mmHg 65%
    11:00 +13°C° 0 mm 5 mps 732 mmHg 61%
    12:00 +14°C° 0 mm 5 mps 732 mmHg 56%
    13:00 +15°C° 0 mm 5 mps 732 mmHg 52%
    14:00 +17°C° 0 mm 5 mps 732 mmHg 48%
    15:00 +18°C° 0 mm 4 mps 732 mmHg 49%
    16:00 +18°C° 0 mm 4 mps 732 mmHg 50%
    17:00 +18°C° 0 mm 4 mps 732 mmHg 51%
    18:00 +17°C° 0 mm 3 mps 732 mmHg 59%
    19:00 +14°C° 0 mm 3 mps 732 mmHg 67%
    20:00 +14°C° 0 mm 2 mps 732 mmHg 74%
    21:00 +14°C° 0.1 mm 2 mps 732 mmHg 79%
    22:00 +14°C° 0.1 mm 2 mps 732 mmHg 84%
    23:00 +13°C° 0.1 mm 3 mps 732 mmHg 88%

    28 May, Tuesday

    Time Temperature Precipitation Wind Pressure Humidity
    00:00 +13°C° 0.5 mm 3 mps 732 mmHg 91%
    01:00 +13°C° 0.5 mm 3 mps 732 mmHg 94%
    02:00 +13°C° 0.5 mm 3 mps 732 mmHg 97%
    03:00 +13°C° 0.1 mm 3 mps 733 mmHg 97%
    04:00 +13°C° 0.1 mm 3 mps 733 mmHg 96%
    05:00 +13°C° 0.1 mm 3 mps 733 mmHg 96%
    06:00 +14°C° 0 mm 3 mps 733 mmHg 94%
    07:00 +14°C° 0 mm 3 mps 734 mmHg 93%
    08:00 +14°C° 0 mm 3 mps 734 mmHg 91%
    09:00 +17°C° 0 mm 3 mps 734 mmHg 79%
    10:00 +19°C° 0 mm 3 mps 735 mmHg 66%
    11:00 +21°C° 0 mm 3 mps 735 mmHg 54%
    12:00 +21°C° 0 mm 3 mps 735 mmHg 52%
    13:00 +22°C° 0 mm 3 mps 735 mmHg 51%
    14:00 +24°C° 0 mm 2 mps 735 mmHg 49%
    15:00 +23°C° 0 mm 2 mps 735 mmHg 54%
    16:00 +23°C° 0 mm 1 mps 735 mmHg 59%
    17:00 +23°C° 0 mm 1 mps 735 mmHg 63%
    18:00 +21°C° 0.9 mm 1 mps 735 mmHg 73%
    19:00 +19°C° 0.9 mm 1 mps 735 mmHg 83%
    20:00 +18°C° 0.9 mm 1 mps 735 mmHg 93%
    21:00 +18°C° 1.6 mm 1 mps 735 mmHg 95%
    22:00 +18°C° 1.6 mm 1 mps 735 mmHg 96%
    23:00 +17°C° 1.6 mm 2 mps 734 mmHg 97%

    29 May, Wednesday

    Time Temperature Precipitation Wind Pressure Humidity
    00:00 +16°C° 0.1 mm 2 mps 734 mmHg 97%
    01:00 +16°C° 0.1 mm 2 mps 734 mmHg 97%
    02:00 +16°C° 0.1 mm 3 mps 734 mmHg 96%
    03:00 +16°C° 0 mm 3 mps 734 mmHg 96%
    04:00 +16°C° 0 mm 3 mps 734 mmHg 96%
    05:00 +16°C° 0 mm 3 mps 733 mmHg 96%
    06:00 +18°C° 0 mm 4 mps 733 mmHg 92%
    07:00 +19°C° 0 mm 4 mps 733 mmHg 87%
    08:00 +21°C° 0 mm 4 mps 733 mmHg 83%
    09:00 +22°C° 0 mm 5 mps 733 mmHg 72%
    10:00 +25°C° 0 mm 5 mps 733 mmHg 62%
    11:00 +26°C° 0 mm 6 mps 733 mmHg 52%
    12:00 +26°C° 0.4 mm 5 mps 733 mmHg 57%
    13:00 +26°C° 0.4 mm 5 mps 732 mmHg 62%
    14:00 +26°C° 0.4 mm 5 mps 732 mmHg 68%
    15:00 +26°C° 0.3 mm 5 mps 732 mmHg 68%
    16:00 +25°C° 0.3 mm 5 mps 732 mmHg 69%
    17:00 +25°C° 0.3 mm 5 mps 732 mmHg 70%
    18:00 +22°C° 1 mm 5 mps 732 mmHg 76%
    19:00 +21°C° 1 mm 4 mps 732 mmHg 82%
    20:00 +20°C° 1 mm 3 mps 732 mmHg 88%
    21:00 +19°C° 0.1 mm 3 mps 732 mmHg 90%
    22:00 +19°C° 0.1 mm 3 mps 733 mmHg 91%
    23:00 +18°C° 0.1 mm 3 mps 733 mmHg 92%
    Show more